Tracking 30510 objects as of 22-May-2025
HD Live streaming from Space Station
objects crossing your sky now

CZ-3A DEB

Track CZ-3A DEB now!


NORAD ID: 35551
Int'l Code: 2007-003K
Perigee: 633.6 km
Apogee: 37,125.1 km
Inclination: 25.6 °
Period: 665.5 minutes
Semi major axis: 25250 km
RCS: 0.2188 m2 (medium)
Launch date: February 2, 2007
Source: People's Republic of China (PRC)
Launch site: Xichang Space Center, China (XSC)

Note: This is SATELLITE DEBRIS
Your satellite tracking list
Your tracking list is empty




NASA's NSSDC Master Catalog

Two Line Element Set (TLE):
1 35551U 07003K   25141.72963148 -.00000213  00000-0 -90822-3 0  9994
2 35551  25.6192   0.5263 7225933 277.4014  12.7258  2.16372552136275
Source of the keplerian elements: AFSPC